TimeCDT,TemperatureF,Dew PointF,Humidity,Sea Level PressureIn,VisibilityMPH,Wind Direction,Wind SpeedMPH,Gust SpeedMPH,PrecipitationIn,Events,Conditions,WindDirDegrees,DateUTC
12:15 AM,35.6,24.8,65,30.09,10.0,Calm,Calm,-,N/A,,Overcast,0,2014-05-16 05:15:00
12:32 AM,33.8,24.8,70,30.09,10.0,Calm,Calm,-,N/A,,Overcast,0,2014-05-16 05:32:00
12:55 AM,33.8,26.6,75,30.08,10.0,Calm,Calm,-,N/A,,Mostly Cloudy,0,2014-05-16 05:55:00
1:14 AM,33.8,26.6,75,30.08,10.0,Calm,Calm,-,N/A,,Overcast,0,2014-05-16 06:14:00
1:35 AM,33.8,26.6,75,30.07,10.0,Calm,Calm,-,N/A,,Overcast,0,2014-05-16 06:35:00
1:54 AM,33.8,28.4,81,30.07,10.0,Calm,Calm,-,N/A,,Overcast,0,2014-05-16 06:54:00
2:15 AM,33.8,26.6,75,30.07,10.0,Calm,Calm,-,N/A,,Overcast,0,2014-05-16 07:15:00
2:35 AM,32.0,26.6,80,30.07,10.0,Calm,Calm,-,N/A,,Overcast,0,2014-05-16 07:35:00
2:54 AM,33.8,28.4,81,30.06,10.0,Calm,Calm,-,N/A,,Overcast,0,2014-05-16 07:54:00
3:15 AM,33.8,26.6,75,30.06,10.0,Calm,Calm,-,N/A,,Overcast,0,2014-05-16 08:15:00
3:35 AM,32.0,26.6,80,30.06,10.0,Calm,Calm,-,N/A,,Overcast,0,2014-05-16 08:35:00
3:54 AM,32.0,28.4,87,30.06,10.0,West,3.5,-,N/A,,Overcast,280,2014-05-16 08:54:00
4:15 AM,33.8,28.4,81,30.06,10.0,Calm,Calm,-,N/A,,Overcast,0,2014-05-16 09:15:00
4:35 AM,32.0,26.6,80,30.06,10.0,Calm,Calm,-,N/A,,Overcast,0,2014-05-16 09:35:00
4:55 AM,32.0,26.6,80,30.06,10.0,Calm,Calm,-,N/A,,Overcast,0,2014-05-16 09:55:00
5:14 AM,32.0,28.4,87,30.06,10.0,Calm,Calm,-,N/A,,Overcast,0,2014-05-16 10:14:00
5:35 AM,30.2,26.6,86,30.05,10.0,Calm,Calm,-,N/A,,Overcast,0,2014-05-16 10:35:00
5:55 AM,30.2,28.4,93,30.06,10.0,Calm,Calm,-,N/A,,Overcast,0,2014-05-16 10:55:00
6:14 AM,30.2,28.4,93,30.06,10.0,Calm,Calm,-,N/A,,Overcast,0,2014-05-16 11:14:00
6:34 AM,32.0,28.4,87,30.06,10.0,Calm,Calm,-,N/A,,Overcast,0,2014-05-16 11:34:00
6:40 AM,32.0,28.4,87,30.06,10.0,Calm,Calm,-,N/A,,Overcast,0,2014-05-16 11:40:00
7:01 AM,33.8,28.4,81,30.06,10.0,Calm,Calm,-,N/A,,Overcast,260,2014-05-16 12:01:00
7:21 AM,33.8,28.4,81,30.06,10.0,West,1.2,-,N/A,,Overcast,260,2014-05-16 12:21:00
7:41 AM,35.6,30.2,81,30.06,10.0,West,1.2,-,N/A,,Overcast,260,2014-05-16 12:41:00
8:01 AM,37.4,28.4,70,30.06,10.0,WNW,2.3,-,N/A,,Overcast,300,2014-05-16 13:01:00
8:36 AM,41.0,26.6,57,30.05,10.0,Calm,Calm,-,N/A,,Overcast,0,2014-05-16 13:36:00
8:55 AM,42.8,24.8,49,30.05,10.0,NNW,3.5,-,N/A,,Overcast,330,2014-05-16 13:55:00
9:15 AM,42.8,23.0,46,30.05,10.0,NNW,6.9,-,N/A,,Overcast,330,2014-05-16 14:15:00
9:34 AM,44.6,23.0,43,30.04,10.0,NNW,4.6,-,N/A,,Mostly Cloudy,340,2014-05-16 14:34:00
9:52 AM,46.4,21.2,37,30.04,10.0,NNW,9.2,-,N/A,,Scattered Clouds,340,2014-05-16 14:52:00
10:09 AM,44.6,21.2,39,30.04,10.0,NNW,5.8,-,N/A,,Scattered Clouds,330,2014-05-16 15:09:00
10:35 AM,44.6,19.4,37,30.03,10.0,NNE,9.2,-,N/A,,Overcast,30,2014-05-16 15:35:00
10:55 AM,46.4,21.2,37,30.03,10.0,NNW,5.8,-,N/A,,Mostly Cloudy,330,2014-05-16 15:55:00
11:15 AM,44.6,21.2,39,30.03,10.0,NW,8.1,-,N/A,,Overcast,310,2014-05-16 16:15:00
11:34 AM,46.4,21.2,37,30.02,10.0,NNW,4.6,-,N/A,,Mostly Cloudy,330,2014-05-16 16:34:00
11:55 AM,46.4,19.4,34,30.03,10.0,North,6.9,17.3,N/A,,Mostly Cloudy,360,2014-05-16 16:55:00
12:15 PM,48.2,19.4,32,30.02,10.0,NNW,9.2,-,N/A,,Mostly Cloudy,340,2014-05-16 17:15:00
12:28 PM,48.2,21.2,34,30.02,10.0,NNW,8.1,16.1,N/A,,Scattered Clouds,330,2014-05-16 17:28:00
12:54 PM,48.2,21.2,34,30.02,10.0,NW,9.2,-,N/A,,Mostly Cloudy,310,2014-05-16 17:54:00
1:14 PM,48.2,21.2,34,30.01,10.0,NW,5.8,21.9,N/A,,Mostly Cloudy,310,2014-05-16 18:14:00
1:22 PM,50.0,21.2,32,30.01,10.0,NW,9.2,17.3,N/A,,Scattered Clouds,320,2014-05-16 18:22:00
1:41 PM,48.2,19.4,32,30.00,10.0,North,9.2,18.4,N/A,,Mostly Cloudy,360,2014-05-16 18:41:00
2:14 PM,50.0,19.4,30,30.00,10.0,NNW,9.2,16.1,N/A,,Scattered Clouds,340,2014-05-16 19:14:00
2:21 PM,48.2,19.4,32,30.00,10.0,NNE,9.2,16.1,N/A,,Scattered Clouds,20,2014-05-16 19:21:00
2:47 PM,48.2,21.2,34,30.00,10.0,NNW,6.9,10.4,N/A,,Scattered Clouds,340,2014-05-16 19:47:00
2:52 PM,51.8,21.2,30,30.00,10.0,WNW,6.9,-,N/A,,Scattered Clouds,300,2014-05-16 19:52:00
2:58 PM,51.8,21.2,30,30.00,10.0,North,10.4,-,N/A,,Scattered Clouds,350,2014-05-16 19:58:00
3:21 PM,50.0,19.4,30,29.99,10.0,NNW,5.8,-,N/A,,Scattered Clouds,340,2014-05-16 20:21:00
3:41 PM,51.8,21.2,30,29.99,10.0,North,4.6,-,N/A,,Scattered Clouds,0,2014-05-16 20:41:00
4:01 PM,51.8,19.4,28,29.98,10.0,NW,6.9,-,N/A,,Mostly Cloudy,320,2014-05-16 21:01:00
4:29 PM,51.8,21.2,30,29.98,10.0,NNW,10.4,16.1,N/A,,Mostly Cloudy,340,2014-05-16 21:29:00
4:35 PM,51.8,21.2,30,29.98,10.0,NW,9.2,16.1,N/A,,Mostly Cloudy,310,2014-05-16 21:35:00
4:50 PM,51.8,21.2,30,29.98,10.0,North,8.1,18.4,N/A,,Mostly Cloudy,360,2014-05-16 21:50:00
5:01 PM,51.8,19.4,28,29.98,10.0,NW,6.9,-,N/A,,Mostly Cloudy,320,2014-05-16 22:01:00
5:21 PM,51.8,19.4,28,29.98,10.0,North,6.9,16.1,N/A,,Mostly Cloudy,10,2014-05-16 22:21:00
5:41 PM,53.6,21.2,28,29.98,10.0,NNE,5.8,9.2,N/A,,Mostly Cloudy,20,2014-05-16 22:41:00
6:10 PM,51.8,19.4,28,29.98,10.0,NNW,6.9,-,N/A,,Scattered Clouds,330,2014-05-16 23:10:00
6:14 PM,51.8,19.4,28,29.98,10.0,NNW,5.8,-,N/A,,Scattered Clouds,340,2014-05-16 23:14:00
6:35 PM,51.8,19.4,28,29.98,10.0,North,5.8,-,N/A,,Clear,10,2014-05-16 23:35:00
6:55 PM,50.0,19.4,30,29.98,10.0,NW,4.6,-,N/A,,Clear,310,2014-05-16 23:55:00
7:14 PM,51.8,19.4,28,29.98,10.0,NNW,3.5,-,N/A,,Clear,340,2014-05-17 00:14:00
7:35 PM,50.0,19.4,30,29.99,10.0,North,5.8,-,N/A,,Scattered Clouds,360,2014-05-17 00:35:00
7:55 PM,48.2,19.4,32,29.99,10.0,Calm,Calm,-,N/A,,Scattered Clouds,0,2014-05-17 00:55:00
8:14 PM,48.2,19.4,32,29.99,10.0,Calm,Calm,-,N/A,,Mostly Cloudy,0,2014-05-17 01:14:00
8:35 PM,46.4,21.2,37,29.99,10.0,Calm,Calm,-,N/A,,Mostly Cloudy,0,2014-05-17 01:35:00
8:55 PM,42.8,21.2,42,29.99,10.0,Calm,Calm,-,N/A,,Scattered Clouds,0,2014-05-17 01:55:00
9:14 PM,41.0,26.6,57,29.99,10.0,Calm,Calm,-,N/A,,Clear,0,2014-05-17 02:14:00
9:35 PM,39.2,28.4,65,29.99,10.0,Calm,Calm,-,N/A,,Clear,0,2014-05-17 02:35:00
9:55 PM,37.4,26.6,65,29.99,10.0,Calm,Calm,-,N/A,,Clear,0,2014-05-17 02:55:00
10:14 PM,37.4,28.4,70,29.99,10.0,Calm,Calm,-,N/A,,Clear,0,2014-05-17 03:14:00
10:35 PM,35.6,28.4,75,29.99,10.0,Calm,Calm,-,N/A,,Clear,0,2014-05-17 03:35:00
10:54 PM,35.6,28.4,75,29.99,10.0,Calm,Calm,-,N/A,,Clear,0,2014-05-17 03:54:00
11:15 PM,33.8,28.4,81,29.98,10.0,Calm,Calm,-,N/A,,Clear,0,2014-05-17 04:15:00
11:34 PM,33.8,26.6,75,29.98,10.0,Calm,Calm,-,N/A,,Clear,0,2014-05-17 04:34:00
11:55 PM,33.8,26.6,75,29.98,10.0,Calm,Calm,-,N/A,,Clear,0,2014-05-17 04:55:00